Hlavní strana
METAR-TAF:

METAR-TAF

Letiště :

Fayetteville, Tennessee, Spojené státy americké

zeměpisná šířka: 35-03-35N, zeměpisná délka: 086-33-50W, výška: 300 m

Aktuální stav počasí

Zpráva byla vytvořena před 29 minutami, v 13:15 UTC
Severoseverovýchodní vítr 7 kt
Teplota 0°C
Vlhkost vzduchu 100%
Tlak 1018 hPa
Zataženo ve výšce 200 ft
mrznoucí mlha

METAR: KFYM 281315Z AUTO 02007KT M1/4SM FZFG OVC002 M00/M00 A3006 RMK A01

Čas: 07:44 (13:44 UTC)


TAF: chybějící

Stav a předpovědi počasí z více než 4 000 letišť (zprávy METAR a TAF).

Červené a žluté tečky na mapě představují dostupné meteorologické stanice.

Když kurzor umístíte na tečku, zobrazí se název stanice.

Pak kliknutím zobrazíte stav a předpověď počasí.

Chcete-li změnit mapu, kliknutím na zelené tlačítko se znaménkem +mapu přiblížíte, kliknutím na zelené tlačítko se znaménkem – mapu oddálíte a kliknutím na zelené šipky přejdete na sousední mapy.


METAR-TAF: